Regional Weather Roundup
Issued by NWS Pendleton, OR

Home | Current Version | Previous Version | Text Only | Print | Product List | Glossary On
Versions: 1 2 3 4 5 6 7 8 9 10 11 12 13 14 15 16 17 18 19 20 21 22 23 24 25 26 27 28 29 30 31 32 33 34 35 36 37 38 39 40 41 42 43 44 45 46 47 48 49 50
000
ASUS46 KPDT 012025
RWRPDT
PENDLETON REGIONAL WEATHER ROUNDUP
NATIONAL WEATHER SERVICE PENDLETON OREGON
100 PM PDT WED JUL 1 2015

NOTE: FAIR INDICATES FEW OR NO CLOUDS BELOW 12,000 FEET WITH NO
SIGNIFICANT WEATHER AND/OR OBSTRUCTIONS TO VISIBILITY.

# INDICATES UNOFFICIAL STATION AND DATA

WAZ520-012110-
EAST SLOPES OF WASHINGTON CASCADES

CITY            SKY/WX      TMP DP  RH  WIND    PRES   REMARKS
#BULLFROG 2SW   N/A         86  49  28  SE2     27.63F
#BUMPING DAM    N/A         83  N/A N/A S1      N/A
#CLE ELUM HS    N/A         88  47  24  SE3     29.96F
#CLE ELUM LAKE  N/A         87  53  31  CALM    29.87F
#CLIFFDEL 2NW   N/A         89  46  23  S2      N/A
#GLENWOOD       N/A         88  56  34  W1      29.89F
#MANASTASH CYN  N/A         85  50  30  CALM    30.03F
#NELSON         N/A         91  50  25  CALM    29.90F HX 88
#NELSON 3SW     N/A         86  51  30  CALM    30.08F
#NILE           N/A         88  51  28  E2      29.18F
#RONALD 2NW     N/A         85  52  32  SE2     29.93F
#SNOWDEN        N/A         86  35  16  CALM    N/A
#TEANAWAY 4NE   N/A         88  54  31  W1      N/A
#TROUT LAKE 1NE N/A         88  51  28  CALM    29.88F
$$

WAZ521-012110-
SIMCOE HIGHLANDS

CITY            SKY/WX      TMP DP  RH  WIND    PRES   REMARKS
#BICKLETON HS   N/A         84  40  21  SE6     N/A
#CENTERVILLE 4W N/A         91  55  30  S6      29.74F HX 89
#CENTERVILLE 1SWN/A         89  54  31  S5      29.84F
#GOLDENDALE     N/A         89  47  24  SE7     N/A
#GOLDENDALE 5WNWN/A         92  52  26  S2      29.85F HX 89
#GOODNOE HILLS  N/A         97  53  23  E8      N/A    HX 95
#LYLE 6NE       N/A         89  54  31  S5      29.85F
$$

WAZ026-012110-
KITTITAS VALLEY

CITY            SKY/WX      TMP DP  RH  WIND    PRES   REMARKS
ELLENSBURG AP   SUNNY       95  46  19  VRB5    30.00F HX 91
YTC-OPS AREA    N/A         85  41  21  E9      30.06F
#ELLENSBURG CWU N/A         89  50  26  E5      29.85F
#ELLENSBURG 3NE N/A         86  53  32  CALM    30.00F
#ELLENSBURG 1E  N/A         91  52  27  CALM    N/A    HX 88
#KITTITAS 3S    N/A         87  53  31  NE3     29.87F
#THORP 6N       N/A         85  48  28  W2      29.91F
$$

WAZ027-012110-
YAKIMA VALLEY

CITY            SKY/WX      TMP DP  RH  WIND    PRES   REMARKS
SUNNYSIDE AP    SUNNY       92  53  27  E5      29.94F HX 90
YAKIMA AIRPORT  SUNNY       96  49  20  E7      29.96F HX 93
#DONALD 2NE     N/A         98  22   7  SE1     28.80F HX 93
#GRANDVIEW      N/A         91  52  27  NE3     29.90F HX 88
#MABTON         N/A         91  59  34  VRB5    29.93F HX 90
#MOXEE 2E       N/A         90  10   5  S9      29.84F HX 86
#NACHES 2SW     N/A         90  59  35  SE1     30.02F HX 89
#OUTLOOK DOT    N/A         N/A N/A N/A E5      N/A
#SELAH 8E       N/A         93  46  20  S10     N/A    HX 89
#TERRACE HTS    N/A         92  53  27  S1      29.84F HX 90
#TOPPENISH      N/A         91  53  28  E5      29.81F HX 89
#WAPATO 4NE     N/A         98  22   7  SE1     28.80F HX 93
#WEST VALLEY    N/A         90  50  26  CALM    29.86F HX 87
#W YAKIMA       N/A         90  51  26  SE3     29.88F HX 87
#WHITE SWAN 5E  N/A         90  55  31  NE6     29.89F HX 88
#WILEY CITY 3W  N/A         91  40  17  E2      29.94F HX 87
$$

WAZ028-012110-
LOWER COLUMBIA BASIN...WASHINGTON

CITY            SKY/WX      TMP DP  RH  WIND    PRES   REMARKS
PASCO           SUNNY       95  52  24  N8      29.93F HX 92
RICHLAND AWOS   SUNNY       95  52  24  E8      29.92F HX 92
#BASIN CITY 5SW N/A         96  62  33  E3      29.93F HX 97
#BENTON CITY    N/A         92  53  27  E3      29.80F HX 90
#CONNELL 5N     N/A         95  50  22  SW2     29.88F HX 92
#CONNELL 5NW    N/A         91  53  28  W5      29.86F HX 89
#ELTOPIA 6NW    N/A         94  58  30  N6      28.94F HX 93
#KAHLOTUS       N/A         91  47  22  NW10    29.88F HX 88
#KENNEWICK      N/A         86  49  28  SE2     27.63F
#KENNEWICK 3S   N/A         93  55  28  CALM    29.90F HX 91
#PATERSON       N/A         92  56  30  CALM    29.88F HX 90
#PROSSER        N/A         93  48  22  NE3     29.88F HX 90
#SAGEMOOR 2W    N/A         89  65  45  N3      29.76F
#TOUCHET 2S     N/A         91  62  38  W3      29.89F HX 91
#WEST PASCO     N/A         95  59  30  NE2     29.93F HX 94
$$

WAZ029-012110-
FOOTHILLS OF THE BLUES...WASHINGTON

CITY            SKY/WX      TMP DP  RH  WIND    PRES   REMARKS
WALLA WALLA AP  SUNNY       93  48  22  S6      29.97F HX 90
#DAYTON SCHOOL  N/A         92  46  21  SE2     29.98F HX 88
#PLEASANT VIEW 1N/A         94  48  21  NW3     29.90F HX 91
#PRESCOTT       N/A         94  54  26  CALM    29.88F HX 92
#WHITMAN COLLEGEN/A         91  53  28  CALM    29.93F HX 89
#WAITSBURG 5S   N/A         93  50  23  S1      29.96F HX 90
#WAITSBURG 8N   N/A         97  34  11  S5      29.79F HX 92
#WALLA WALLA U  N/A         93  52  25  CALM    29.88F HX 90
#WHITMAN MISSIONN/A         92  62  37  CALM    29.91F HX 93
$$

WAZ030-012110-
BLUE MOUNTAINS...WASHINGTON

CITY            SKY/WX      TMP DP  RH  WIND    PRES   REMARKS
#DIXIE 5SE      N/A         82  47  29  S7      30.02F
$$

ORZ009-041-WAZ024-012110-
COLUMBIA RIVER GORGE

CITY            SKY/WX      TMP DP  RH  WIND    PRES   REMARKS
HOOD RIVER AP   SUNNY       90  57  33  CALM    29.94F HX 89
THE DALLES AP   SUNNY       97  42  15  S3      29.89F HX 93
#ARLINGTON AIRPON/A         92  52  26  E3      29.80R HX 89
#ARLINGTON HS   N/A         95  52  24  CALM    29.77F HX 92
#MOSIER 1S      N/A         95  38  14  NE3     29.91F HX 91
#MURDOCK        N/A         93  57  30  W5      29.88F HX 92

$$

ORZ510-012110-
NORTH CENTRAL OREGON

CITY            SKY/WX      TMP DP  RH  WIND    PRES   REMARKS
#CHENOWITH 1W   N/A         90  51  26  E6      N/A    HX 87
#DUFUR 9E       N/A         88  48  25  N7      29.90F
#GRASS VALLEY 1SN/A         93  54  27  N3      29.88F HX 91
#MAUPIN SCHOOL  N/A         96  48  20  CALM    29.92F HX 93
#MORO SCHOOL    N/A         91  58  33  NE3     29.98F HX 90
#SHANIKO 5WSW   N/A         90  52  27  NW5     N/A    HX 87
#SHANIKO 4NW    N/A         88  44  22  N5      30.09F
#TYGH VALLEY 2NEN/A         94  56  28  S1      29.84F HX 92
#WAPANITIA AIRPON/A         93  48  22  CALM    29.86F HX 90
#WASCO 5NE      N/A         94  56  28  N6      29.86F HX 92
$$

ORZ511-012110-
CENTRAL OREGON

CITY            SKY/WX      TMP DP  RH  WIND    PRES   REMARKS
BEND AIRPORT    N/A         N/A N/A N/A MISG    N/A
MADRAS AIRPORT  SUNNY       91  46  21  CALM    30.03F HX 87
PRINEVILLE AP   SUNNY       91  45  20  N12     30.03F HX 87
REDMOND AIRPORT SUNNY       93  48  22  N8      30.03F HX 90
#BEND 1SW       N/A         92  50  24  W1      N/A    HX 89
#BEND-AWBREY    N/A         90  50  26  CALM    29.82F HX 87
#BEND-KIM LN    N/A         93  54  27  NE2     30.03F HX 91
#CROOKED RVR RANN/A         91  52  27  E2      29.82F HX 88
#CULVER         N/A         88  53  30  CALM    29.98F
#LAKE BILLY CHINN/A         90   5   4  N7      30.01F HX 86
#POWELL BUTTE 3EN/A         83  56  40  NW6     N/A
#POWELL BUTTE   N/A         94  57  29  N2      29.68F HX 93
#PRINEVILLE 3N  N/A         91  48  23  W2      29.80F HX 88
#WARM SPRINGS   N/A         96  53  24  E1      29.92F HX 94

$$


ORZ509-012110-
EAST SLOPES OF OREGON CASCADES

CITY            SKY/WX      TMP DP  RH  WIND    PRES   REMARKS
#CAMP SHERMAN   N/A         96  48  20  CALM    29.84F HX 93
#LA PINE 4NW    N/A         87  54  32  W3      29.87F
#SISTERS AIRPOR N/A         88  58  36  N2      30.17S
#SISTERS 3N     N/A         88  51  28  E6      30.04F
#SUNRIVER       N/A         92  51  25  W2      29.72F HX 89
#WANOGA BUTTE D N/A         80  41  25  S2      N/A

$$

ORZ044-012110-
LOWER COLUMBIA BASIN...OREGON

CITY            SKY/WX      TMP DP  RH  WIND    PRES   REMARKS
HERMISTON       SUNNY       95  49  21  N8      29.93F HX 92
#BOARDMAN SCHOOLN/A         92  53  27  N7      29.92F HX 90
#BOARDMAN 8SW   N/A         92  59  33  N7      29.87F HX 91
#ECHO 8SW       N/A         92  53  27  NE2     29.94F HX 90
#IONE SCHOOL    N/A         92  52  26  E3      29.91F HX 89
#IRRIGON 4NW    N/A         96  53  24  E3      N/A    HX 94
#UMATILLA SCHOOLN/A         N/A N/A N/A CALM    N/A
#UMATILLA       N/A         96  54  25  N2      29.83F HX 94
$$

ORZ507-012110-
NORTHERN FOOTHILLS OF THE BLUES

CITY            SKY/WX      TMP DP  RH  WIND    PRES   REMARKS
PENDLETON AIRPT SUNNY       94  47  20  VRB7    29.96F HX 90
#ADAMS 3WNW     N/A         94  53  25  NE7     29.86F HX 91
#ATHENA         N/A         90  52  27  CALM    29.90F HX 87
#CAYUSE         N/A         92  52  26  N6      29.85F HX 89
#HELIX SCHOOL   N/A         88  51  28  N3      29.89F
#HELIX 3N       N/A         88  49  26  N8      29.98F
#HELIX 6SW      N/A         92  52  26  W3      29.97F HX 89
#HOLDMAN 6E     N/A         91  49  24  SE5     29.70F HX 88
#M-F GROVE ELEM N/A         90  49  25  N3      29.95F HX 87
#M-FREEWATER 5SEN/A         89  61  39  W2      29.96F
#PENDLETON DNTN N/A         99  51  20  CALM    29.93S HX 96
#PDT AQUATIC CTRN/A         92  54  28  CALM    29.98F HX 90
#PDT SUNRIDGE   N/A         96  51  22  CALM    29.96F HX 93
#PENDLETON 7NW  N/A         94  61  34  CALM    26.72S HX 94
#PILOT ROCK     N/A         90  52  27  N5      30.00F HX 87
#TUTUILLA       N/A         93  54  27  N7      29.91F HX 91
#UMAPINE 2E     N/A         92  59  33  W1      29.91F HX 91
#WESTON SCHOOL  N/A         87  49  27  E2      29.89S

$$

ORZ508-012110-
SOUTHERN FOOTHILLS OF THE BLUES

CITY            SKY/WX      TMP DP  RH  WIND    PRES   REMARKS
#AJAX           N/A         90  48  24  NW6     29.93F HX 87
#CONDON SCHOOL  N/A         89  52  28  NE6     29.99F
#CONDON 5W      N/A         87  46  24  N2      30.04F
#FOSSIL SCHOOL  N/A         90  49  25  W2      29.97F HX 87
#HEPPNER EOC    N/A         92  51  25  N2      29.78F HX 89
#HEPPNER 4NE    N/A         88  52  29  N5      29.85F
#LEXINGTON 2SE  N/A         95  54  25  N2      29.93F HX 93
#RUGGS 5NE      N/A         93  53  26  NW8     30.20S HX 91
#RUGGS 2SW      N/A         91  51  26  N3      29.86F HX 88

$$

ORZ502-503-012110-
BLUE MOUNTAINS

CITY            SKY/WX      TMP DP  RH  WIND    PRES   REMARKS
MEACHAM         SUNNY       86  48  27  W5      30.11F
#HEPPNER 15SE   N/A         88  54  31  NW2     30.04F
#LONG CREEK HS  N/A         79  39  24  CALM    30.05F
#N POWDER DOT   N/A         89  59  37  NE8     N/A
#PIKES PEAK     N/A         80  52  38  W3      27.99S
#TOLLGATE       N/A         78  49  36  CALM    30.11S
#TROY SCHOOL    N/A         99  53  22  CALM    29.69F HX 97
#UKIAH          N/A         88  48  25  VRB2    29.93F
#WESTON 4E      N/A         85  55  36  NW1     29.83F
$$

ORZ505-012110-
JOHN DAY BASIN

CITY            SKY/WX      TMP DP  RH  WIND    PRES   REMARKS
JOHN DAY        SUNNY       93  44  19  NW6     30.08F HX 89
#JOHN DAY KJDY  N/A         95  84  71  SW1     30.06F HX 124
#DAYVILLE SCHOOLN/A         94  44  18  CALM    29.96F HX 90
#MITCHELL       N/A         94  59  31  CALM    30.18F HX 93
#MONUMENT HS    N/A         94  45  19  S2      29.98F HX 90
#MT. VERNON 5SE N/A         89  44  21  N3      30.06F
#WINLOCK        N/A         92  46  21  CALM    30.13F HX 88
$$

ORZ506-012110-
OCHOCO AND JOHN DAY HIGHLANDS

CITY            SKY/WX      TMP DP  RH  WIND    PRES   REMARKS
#HORSE RIDGE DO N/A         90  42  19  N8      N/A    HX 86
#KEYES SMT DOT  N/A         87  45  23  W6      N/A
#PAULINA SCHOOL N/A         92  45  20  E2      30.04F HX 88
#PINE MTN OBS   N/A         79  43  28  S1      N/A
#PRAIRIE CITY   N/A         95  36  13  SW2     29.77F HX 90
#SENECA         N/A         85  N/A N/A SE2     N/A
#SENECA 9NW     N/A         89  50  26  N1      29.82F
$$

ORZ049-012110-
GRANDE RONDE VALLEY

CITY            SKY/WX      TMP DP  RH  WIND    PRES   REMARKS
LA GRANDE       SUNNY       93  46  20  N8      30.03F HX 89
#ELGIN 3N       N/A         92  44  19  CALM    29.99F HX 88
#IMBLER SCHOOL  N/A         88  53  30  CALM    29.98F
#ISLAND CITY 4N N/A         89  61  39  NE1     29.94F
#UNION 1S       N/A         89  47  24  W5      29.78F
$$

ORZ050-012110-
WALLOWA COUNTY

CITY            SKY/WX      TMP DP  RH  WIND    PRES   REMARKS
#ENTERPRISE HS  N/A         88  49  26  NW7     30.09S
#IMNAHA SCHOOL  N/A         98  46  17  S2      29.94F HX 94
#IMNAHA 10S     N/A         76  51  42  SW3     30.01S
#JOSEPH 3N      N/A         85  44  24  SW3     30.12F
#JOSEPH 3W      N/A         83  42  24  NE6     29.99F
#LOSTINE        N/A         90  43  20  NW2     29.68F HX 86
#MT HOWARD 8000 N/A         67  43  42  NW1     30.43R
#PROMISE 1S     N/A         86  49  28  NE1     30.06R
#WALLOWA SCHOOL N/A         90  41  18  CALM    30.01F HX 86



$$



USA.gov is the U.S. government's official web portal to all federal, state and local government web resources and services.